Location: Amon Carter Post Office
(32.8281°N, 97.0484°W)
Time: 04:18:53
(UTC+00:00)

Cosmos 1328 Rocket - Visible Passes

Search period start: 29 June 2022 00:00
Search period end: 09 July 2022 00:00
Orbit: 602 x 625 km, 82.5° (Epoch: 28 June)

Date Brightness Start Highest point End Pass type
(mag) Time Alt. Az. Time Alt. Az. Time Alt. Az.
29 Jun 4.8 09:02:02 10° N 09:06:11 39° E 09:08:46 20° SE visible
29 Jun 5.5 10:41:33 10° WNW 10:43:28 13° W 10:45:23 10° WSW visible
30 Jun 3.6 09:17:26 10° N 09:21:51 78° E 09:23:36 36° SSE visible
01 Jul 3.7 09:33:10 10° NNW 09:37:26 52° W 09:38:31 41° SW visible
02 Jul 5.8 08:12:08 10° NNE 08:15:15 19° ENE 08:16:29 17° E visible
02 Jul 4.6 09:49:15 10° NNW 09:52:57 27° W 09:53:29 26° WSW visible
03 Jul 4.8 08:27:00 10° NNE 08:31:02 34° E 08:31:29 34° E visible
03 Jul 5.4 10:06:01 10° NW 10:08:23 14° W 10:08:29 14° W visible
04 Jul 3.7 08:42:19 10° N 08:46:32 68° ENE 08:46:32 68° ENE visible
05 Jul 3.9 08:57:59 10° NNW 09:01:38 52° NW 09:01:38 52° NW visible
06 Jul 6.0 07:37:15 10° NE 07:39:45 16° ENE 07:39:45 16° ENE visible
06 Jul 4.8 09:14:00 10° NNW 09:16:46 27° WNW 09:16:46 27° WNW visible
07 Jul 5.4 07:51:58 10° NNE 07:54:55 28° NE 07:54:55 28° NE visible
07 Jul 5.6 09:30:35 10° NW 09:31:55 14° WNW 09:31:55 14° WNW visible
08 Jul 4.9 08:07:14 10° N 08:10:05 38° NNE 08:10:05 38° NNE visible
